Weather History for KBBB - October, 2012

Change the Weather History Date:

Wednesday, October 3, 2012

  Actual Average Record
Temperature  
Mean Temperature 60 °F -  
Max Temperature 80 °F 64 °F 83 °F (1976)
Min Temperature 39 °F 42 °F 22 °F (1989)
Degree Days  
Heating Degree Days 6    
Growing Degree Days 10 (Base 50)    
Moisture  
Dew Point 30 °F    
Average Humidity 34    
Maximum Humidity 65    
Minimum Humidity 16    
Precipitation  
Precipitation 0.00 in - - ()
Sea Level Pressure  
Sea Level Pressure 29.81 in    
Wind  
Wind Speed 7 mph (SSE)    
Max Wind Speed 16 mph    
Max Gust Speed 26 mph    
Visibility 10 miles    
Events      
Averages and records for this station are not official NWS values.
T = Trace of Precipitation, MM = Missing Value Source: NWS Daily Summary

Daily Weather History Graph

Daily Weather History Graph

Search for Another Location

Airport or City:

Trip Planner

Search our weather history database for the weather conditions in past years. The results will help you decide how hot, cold, wet, or windy it might be!

Date:

Astronomy

Oct. 03, 2012 Rise Set
Actual Time 7:23 AM CDT 6:58 PM CDT
Civil Twilight 6:54 AM CDT 7:27 PM CDT
Nautical Twilight 6:20 AM CDT 8:01 PM CDT
Astronomical Twilight 5:45 AM CDT 8:36 PM CDT
Moon 8:39 PM CDT (10/3) 10:59 AM CDT (10/3)
Length of Visible Light 12h 33m
Length of Day
11h 34m
Waning Gibbous, 88% of the Moon is Illuminated
Oct 3
Waning Gibbous
Oct 8
Last Quarter
Oct 15
New
Oct 21
First Quarter
Oct 29
Full

Hourly Weather History & Observations

Time (CDT) Temp. Windchill Dew Point Humidity Pressure Visibility Wind Dir Wind Speed Gust Speed Precip Events Conditions
12:12 AM 51.8 °F - 26.6 °F 38% 29.83 in 10.0 mi South 6.9 mph - N/A   Clear
12:33 AM 51.8 °F - 26.6 °F 38% 29.83 in 10.0 mi South 6.9 mph - N/A   Clear
12:52 AM 51.8 °F - 26.6 °F 38% 29.84 in 10.0 mi South 6.9 mph - N/A   Clear
1:12 AM 50.0 °F - 26.6 °F 40% 29.84 in 10.0 mi South 5.8 mph - N/A   Clear
1:33 AM 50.0 °F - 26.6 °F 40% 29.84 in 10.0 mi South 6.9 mph - N/A   Clear
1:52 AM 48.2 °F - 26.6 °F 43% 29.84 in 10.0 mi South 6.9 mph - N/A   Clear
2:12 AM 48.2 °F - 26.6 °F 43% 29.84 in 10.0 mi South 5.8 mph - N/A   Clear
2:33 AM 48.2 °F - 26.6 °F 43% 29.84 in 10.0 mi South 5.8 mph - N/A   Clear
2:52 AM 48.2 °F - 28.4 °F 46% 29.84 in 10.0 mi South 5.8 mph - N/A   Clear
3:12 AM 48.2 °F - 28.4 °F 46% 29.84 in 10.0 mi South 5.8 mph - N/A   Clear
3:33 AM 46.4 °F 43.5 °F 28.4 °F 50% 29.84 in 10.0 mi South 5.8 mph - N/A   Clear
3:52 AM 48.2 °F - 28.4 °F 46% 29.84 in 10.0 mi South 8.1 mph - N/A   Clear
4:13 AM 46.4 °F 42.9 °F 28.4 °F 50% 29.84 in 10.0 mi South 6.9 mph - N/A   Clear
4:33 AM 46.4 °F 42.9 °F 28.4 °F 50% 29.84 in 10.0 mi South 6.9 mph - N/A   Clear
4:52 AM 46.4 °F - 28.4 °F 50% 29.85 in 10.0 mi Calm Calm - N/A   Clear
5:13 AM 46.4 °F - 28.4 °F 50% 29.85 in 10.0 mi Calm Calm - N/A   Clear
5:33 AM 46.4 °F 44.3 °F 28.4 °F 50% 29.85 in 10.0 mi South 4.6 mph - N/A   Clear
5:52 AM 46.4 °F 44.3 °F 28.4 °F 50% 29.85 in 10.0 mi South 4.6 mph - N/A   Clear
6:13 AM 44.6 °F 41.4 °F 28.4 °F 53% 29.85 in 10.0 mi South 5.8 mph - N/A   Clear
6:33 AM 46.4 °F 44.3 °F 28.4 °F 50% 29.85 in 10.0 mi South 4.6 mph - N/A   Clear
6:52 AM 44.6 °F 43.1 °F 28.4 °F 53% 29.86 in 10.0 mi South 3.5 mph - N/A   Clear
7:13 AM 42.8 °F - 28.4 °F 57% 29.86 in 10.0 mi Calm Calm - N/A   Clear
7:33 AM 39.2 °F 37.0 °F 28.4 °F 65% 29.86 in 10.0 mi SSE 3.5 mph - N/A   Clear
7:52 AM 44.6 °F 41.4 °F 30.2 °F 57% 29.86 in 10.0 mi South 5.8 mph - N/A   Clear
8:13 AM 46.4 °F 44.3 °F 30.2 °F 53% 29.86 in 10.0 mi SSE 4.6 mph - N/A   Clear
8:32 AM 50.0 °F - 30.2 °F 47% 29.85 in 10.0 mi South 8.1 mph - N/A   Clear
8:52 AM 51.8 °F - 30.2 °F 44% 29.86 in 10.0 mi South 3.5 mph - N/A   Clear
9:13 AM 53.6 °F - 30.2 °F 41% 29.86 in 10.0 mi SSE 4.6 mph - N/A   Clear
9:32 AM 55.4 °F - 30.2 °F 38% 29.86 in 10.0 mi South 8.1 mph - N/A   Clear
9:53 AM 57.2 °F - 32.0 °F 38% 29.86 in 10.0 mi South 5.8 mph - N/A   Clear
10:13 AM 59.0 °F - 32.0 °F 36% 29.85 in 10.0 mi South 5.8 mph - N/A   Clear
10:32 AM 60.8 °F - 32.0 °F 34% 29.85 in 7.0 mi Calm Calm - N/A   Clear
10:53 AM 62.6 °F - 32.0 °F 32% 29.85 in 10.0 mi SE 3.5 mph - N/A   Clear
11:13 AM 64.4 °F - 33.8 °F 32% 29.84 in 10.0 mi ESE 5.8 mph - N/A   Clear
11:32 AM 66.2 °F - 33.8 °F 30% 29.84 in 10.0 mi East 3.5 mph - N/A   Clear
11:53 AM 69.8 °F - 33.8 °F 27% 29.84 in 10.0 mi SE 5.8 mph - N/A   Clear
12:13 PM 71.6 °F - 33.8 °F 25% 29.82 in 10.0 mi SSE 8.1 mph - N/A   Clear
12:33 PM - - - N/A% 29.81 in - SSE 9.2 mph - N/A   Unknown
12:53 PM 73.4 °F - 33.8 °F 23% 29.81 in - SSE 5.8 mph - N/A   Clear
1:12 PM 75.2 °F - 33.8 °F 22% 29.79 in 10.0 mi South 10.4 mph - N/A   Clear
1:33 PM 77.0 °F - 33.8 °F 21% 29.79 in 10.0 mi South 12.7 mph 18.4 mph N/A   Clear
1:53 PM 77.0 °F - 33.8 °F 21% 29.78 in 10.0 mi South 12.7 mph - N/A   Clear
2:12 PM 77.0 °F - 30.2 °F 18% 29.78 in 10.0 mi SSE 15.0 mph 21.9 mph N/A   Clear
2:33 PM 77.0 °F - 33.8 °F 21% 29.78 in 10.0 mi South 11.5 mph 17.3 mph N/A   Clear
2:53 PM 78.8 °F - 30.2 °F 17% 29.78 in 10.0 mi South 11.5 mph 19.6 mph N/A   Clear
3:12 PM 80.6 °F - 30.2 °F 16% 29.77 in 10.0 mi SSE 10.4 mph 18.4 mph N/A   Clear
3:33 PM 77.0 °F - 30.2 °F 18% 29.78 in 10.0 mi South 13.8 mph 17.3 mph N/A   Clear
3:53 PM 75.2 °F - 28.4 °F 18% 29.77 in 10.0 mi South 13.8 mph 21.9 mph N/A   Clear
4:12 PM 75.2 °F - 28.4 °F 18% 29.77 in 10.0 mi SSE 9.2 mph 18.4 mph N/A   Clear
4:33 PM 78.8 °F - 28.4 °F 16% 29.75 in 10.0 mi SSE 13.8 mph 17.3 mph N/A   Clear
4:52 PM 75.2 °F - 26.6 °F 17% 29.76 in 10.0 mi South 16.1 mph 19.6 mph N/A   Clear
5:13 PM 75.2 °F - 28.4 °F 18% 29.76 in 10.0 mi South 12.7 mph 20.7 mph N/A   Clear
5:32 PM 75.2 °F - 26.6 °F 17% 29.77 in 10.0 mi South 15.0 mph 23.0 mph N/A   Clear
5:52 PM 75.2 °F - 26.6 °F 17% 29.78 in 10.0 mi South 12.7 mph 18.4 mph N/A   Clear
6:13 PM 73.4 °F - 30.2 °F 20% 29.77 in 10.0 mi SSE 9.2 mph 18.4 mph N/A   Clear
6:32 PM 73.4 °F - 30.2 °F 20% 29.77 in 10.0 mi SSE 8.1 mph - N/A   Clear
6:52 PM 73.4 °F - 30.2 °F 20% 29.78 in 10.0 mi South 12.7 mph - N/A   Clear
7:13 PM 71.6 °F - 32.0 °F 23% 29.78 in 10.0 mi South 9.2 mph - N/A   Clear
7:32 PM 69.8 °F - 32.0 °F 25% 29.78 in 10.0 mi SSE 9.2 mph - N/A   Clear
7:53 PM 69.8 °F - 32.0 °F 25% 29.78 in 10.0 mi SE 8.1 mph - N/A   Clear
8:13 PM 68.0 °F - 33.8 °F 28% 29.78 in 10.0 mi SE 9.2 mph - N/A   Clear
8:32 PM 68.0 °F - 33.8 °F 28% 29.77 in 10.0 mi SE 9.2 mph - N/A   Clear
8:53 PM 68.0 °F - 33.8 °F 28% 29.77 in 10.0 mi SSE 9.2 mph - N/A   Scattered Clouds
9:13 PM 66.2 °F - 33.8 °F 30% 29.77 in 10.0 mi SSE 10.4 mph - N/A   Scattered Clouds
9:32 PM 66.2 °F - 33.8 °F 30% 29.76 in 10.0 mi SE 9.2 mph - N/A   Clear
9:53 PM 68.0 °F - 33.8 °F 28% 29.75 in 10.0 mi SE 10.4 mph - N/A   Mostly Cloudy
10:13 PM 68.0 °F - 33.8 °F 28% 29.75 in 10.0 mi SSE 10.4 mph 16.1 mph N/A   Overcast
10:32 PM 68.0 °F - 33.8 °F 28% 29.74 in 10.0 mi SSE 12.7 mph 19.6 mph N/A   Scattered Clouds
10:53 PM 68.0 °F - 33.8 °F 28% 29.72 in 10.0 mi SSE 15.0 mph 23.0 mph N/A   Clear
11:13 PM 66.2 °F - 33.8 °F 30% 29.71 in 10.0 mi SSE 11.5 mph 21.9 mph N/A   Clear
11:32 PM 66.2 °F - 33.8 °F 30% 29.70 in 10.0 mi South 12.7 mph 26.5 mph N/A   Clear
11:53 PM 64.4 °F - 33.8 °F 32% 29.69 in 10.0 mi SSE 16.1 mph 20.7 mph N/A   Clear